User: anonymous   Login
Location: Vancouver
(49.2500°N, 123.1330°W)
Time: 02:43:01
(UTC-08:00)
Language:

Oscar 11 - Orbit

View from above orbital plane
View from above orbital plane
View from above satellite
View from above satellite

Ground track
Ground track

The orbit data is extracted from the following two-line orbital elements,

1 14781U 84021B   16041.75685036  .00000457  00000-0  63020-4 0  9999
2 14781  97.7683  97.5424 0008910  21.2132 338.9450 14.82665096717377
Epoch (UTC): 10 February 2016 18:09:51
Eccentricity: 0.0008910
inclination: 97.7683°
perigee height: 614 km
apogee height: 627 km
right ascension of ascending node: 97.5424°
argument of perigee: 21.2132°
revolutions per day: 14.82665096
mean anomaly at epoch: 338.9450°
orbit number at epoch: 71737

The dashed part of the orbit path shows where the satellite is in the earth's shadow,  

DLR